TimeCST,TemperatureF,Dew PointF,Humidity,Sea Level PressureIn,VisibilityMPH,Wind Direction,Wind SpeedMPH,Gust SpeedMPH,PrecipitationIn,Events,Conditions,WindDirDegrees,DateUTC
12:53 AM,10.9,5.0,77,29.84,10.0,Calm,Calm,-,N/A,,Clear,0,2013-12-21 06:53:00
1:53 AM,9.0,3.9,80,29.83,10.0,East,5.8,-,N/A,,Clear,90,2013-12-21 07:53:00
2:53 AM,9.0,3.9,80,29.83,10.0,ESE,4.6,-,N/A,,Clear,110,2013-12-21 08:53:00
3:53 AM,6.1,1.9,83,29.82,10.0,NW,4.6,-,N/A,,Clear,320,2013-12-21 09:53:00
4:53 AM,7.0,3.0,84,29.79,10.0,WNW,3.5,-,N/A,,Clear,300,2013-12-21 10:53:00
5:53 AM,7.0,1.9,80,29.81,10.0,Calm,Calm,-,N/A,,Clear,0,2013-12-21 11:53:00
6:53 AM,5.0,1.9,87,29.82,10.0,Calm,Calm,-,N/A,,Clear,0,2013-12-21 12:53:00
7:53 AM,5.0,1.0,84,29.85,10.0,NNW,3.5,-,N/A,,Clear,340,2013-12-21 13:53:00
8:53 AM,7.0,3.0,84,29.84,10.0,NW,5.8,-,N/A,,Clear,310,2013-12-21 14:53:00
9:53 AM,14.0,9.0,80,29.86,10.0,West,3.5,-,N/A,,Clear,280,2013-12-21 15:53:00
10:53 AM,19.9,12.9,74,29.86,10.0,Calm,Calm,-,N/A,,Clear,0,2013-12-21 16:53:00
11:53 AM,28.9,16.0,58,29.81,10.0,SSE,4.6,-,N/A,,Clear,150,2013-12-21 17:53:00
12:53 PM,34.0,16.0,48,29.77,10.0,East,4.6,-,N/A,,Clear,80,2013-12-21 18:53:00
1:53 PM,35.1,17.1,48,29.78,10.0,Calm,Calm,-,N/A,,Clear,0,2013-12-21 19:53:00
2:53 PM,36.0,16.0,44,29.77,10.0,SE,5.8,-,N/A,,Clear,140,2013-12-21 20:53:00
3:53 PM,35.1,15.1,44,29.81,10.0,SE,4.6,-,N/A,,Clear,140,2013-12-21 21:53:00
4:53 PM,30.9,15.1,52,29.83,10.0,East,8.1,-,N/A,,Clear,80,2013-12-21 22:53:00
5:53 PM,24.1,12.9,62,29.86,10.0,NE,6.9,-,N/A,,Clear,40,2013-12-21 23:53:00
6:53 PM,23.0,10.9,60,29.88,10.0,NE,8.1,-,N/A,,Clear,40,2013-12-22 00:53:00
7:53 PM,25.0,12.9,60,29.92,10.0,NE,15.0,21.9,N/A,,Overcast,40,2013-12-22 01:53:00
8:53 PM,21.9,12.9,68,29.94,10.0,NNE,13.8,21.9,N/A,,Overcast,30,2013-12-22 02:53:00
9:53 PM,21.0,12.9,71,29.96,10.0,East,5.8,-,N/A,,Overcast,80,2013-12-22 03:53:00
10:53 PM,19.9,12.9,74,29.98,10.0,NE,4.6,-,N/A,,Overcast,40,2013-12-22 04:53:00
11:53 PM,19.0,12.0,74,29.99,10.0,NNE,6.9,-,N/A,,Overcast,20,2013-12-22 05:53:00